User: anonymous   Login
Location: Castelbiague
(43.0361°N, 0.9246°E)
Time: 10:10:48
(UTC+00:00)
Language:

KORONAS-FOTON - Orbit

View from above orbital plane
View from above orbital plane
View from above satellite
View from above satellite

Ground track
Ground track

The orbit data is extracted from the following two-line orbital elements,

1 33504U 09003A   21260.89190871  .00000557  00000-0  27079-4 0  9997
2 33504  82.4408 127.5208 0019966 132.5148 227.7775 15.16111506696659
Epoch (UTC): 17 September 2021 21:24:20
Eccentricity: 0.0019966
inclination: 82.4408°
perigee height: 504 km
apogee height: 531 km
right ascension of ascending node: 127.5208°
argument of perigee: 132.5148°
revolutions per day: 15.16111506
mean anomaly at epoch: 227.7775°
orbit number at epoch: 69665

The dashed part of the orbit path shows where the satellite is in the earth's shadow,  

DLR